Regional Weather Roundup
Issued by NWS Jackson, KY

Home | Current Version | Previous Version | Text Only | Print | Product List | Glossary Off
Versions: 1 2 3 4 5 6 7 8 9 10 11 12 13 14 15 16 17 18 19 20 21 22 23 24 25 26 27 28

000
ASUS43 KJKL 230910
RWRJKL

EAST KENTUCKY HOURLY WEATHER ROUNDUP
NATIONAL WEATHER SERVICE JACKSON KY
500 AM EDT WED AUG 23 2017

NOTE: "FAIR" INDICATES FEW OR NO CLOUDS BELOW 12,000 FEET WITH
NO SIGNIFICANT WEATHER AND/OR OBSTRUCTIONS TO VISIBILITY.

* THESE REPORTS ARE NOT UNDER NWS QUALITY CONTROL AND MAY NOT
  REPORT WEATHER SUCH AS PRECIPITATION AND FOG.

KYZ079-080-083-085-087-088-110-112-115-119-120-231000
...EASTERN KENTUCKY...

CITY           SKY/WX    TMP DP  RH WIND       PRES   REMARKS
JACKSON        CLOUDY    69  68  96 NW3       29.97R
LONDON         CLOUDY    70  68  93 NW5       29.97S
SOMERSET*      CLOUDY    70  70 100 NW5       29.99R
MONTICELLO*    CLOUDY    71  70  96 NW8       29.99F
WILLIAMSBURG*  CLOUDY    68  68 100 CALM      29.97S
MIDDLESBORO*   CLOUDY    71  71 100 CALM      29.97R
HARLAN APT*    CLOUDY    68  66  94 CALM      29.98R
PIKE CO APT*   FOG       69  69 100 W3        29.96S VSB 1/4
BIG SANDY APT* CLOUDY    70  70 100 CALM      29.95S
MOREHEAD APT*  CLOUDY    70  68  94 NW5       29.98S FOG
$$

KYZ035-036-041-042-044-050-067-078-099-231000
...CENTRAL KENTUCKY...

CITY           SKY/WX    TMP DP  RH WIND       PRES   REMARKS
MT STERLING*   CLOUDY    68  68 100 N6        29.99S
FLEMING/MASON* CLOUDY    67  63  89 N6        29.99R
DANVILLE*      CLOUDY    68  66  94 N5        29.99F
LEXINGTON      MOCLDY    69  65  86 NW7       29.98S
FRANKFORT      CLOUDY    70  65  84 NW6       29.97S
LOUISVILLE     MOCLDY    69  63  81 NW8       29.98F
LEBANON*         N/A     68  66  94 CALM      29.99F
GLASGOW*       PTCLDY    68  68 100 CALM      29.99S
BOWLING GREEN  CLEAR     71  70  96 N3        29.99F
$$

KYZ091>093-OHZ055-061-077-WVZ005-015-034-035-042-231000
...SOUTHERN OHIO/WEST VIRGINIA...

CITY           SKY/WX    TMP DP  RH WIND       PRES   REMARKS
COVINGTON      PTCLDY    66  62  87 N5        29.99R
COLUMBUS       PTCLDY    63  56  78 N6        29.96R
DAYTON         CLEAR     59  55  87 NW6       30.00R
WILMINGTON     MOCLDY    62  56  80 N8        29.98S
HUNTINGTON     CLOUDY    71  68  90 VRB3      29.93S
CHARLESTON     LGT RAIN  71  68  90 NW8       29.93R
PINEVILLE*     CLOUDY    71  69  94 MISG      30.00F
BECKLEY        LGT RAIN  68  66  93 W5        29.98S
BLUEFIELD      CLOUDY    66  64  93 W8        30.01F
LOGAN CO APT*  CLOUDY    70  68  94 CALM      29.95S
$$

VAZ002-007-008-TNZ017-027-036-066-071-231000
...SOUTHWEST VIRGINIA/EAST TENNESSEE...

CITY           SKY/WX    TMP DP  RH WIND       PRES   REMARKS
WISE*          CLOUDY    68  68 100 CALM      30.02S
JONESVILLE*    CLOUDY    72  70  94 SW3       29.98R
ABINGDON*      CLOUDY    73  68  84 CALM      29.98S
BRISTOL        CLOUDY    73  68  84 SW5       29.96S
MORRISTOWN*    CLOUDY    75  70  83 W7        29.95S
SEVIERVILLE*   PTSUNNY   75  66  73 W3        29.95S
KNOXVILLE      CLOUDY    74  70  87 SW6       29.95S
LAFOLLETTE*      N/A     73  70  88 CALM      29.99S
OAK RIDGE      CLOUDY    77  68  73 CALM      29.96S
CROSSVILLE     CLOUDY    69  67  93 N7        30.02S
NASHVILLE      MOCLDY    72  69  90 NW8       30.00R
$$

...KEY TO REMARKS...
VSB - VISIBILITY IN MILES
WCI - WIND CHILL INDEX
HX  - HEAT INDEX

$$




USA.gov is the U.S. government's official web portal to all federal, state and local government web resources and services.